Temp_Advection
nan nan nan nan nan nan nan nan nan nan nan nan nan nan nan nan nan nan nan nan nan nan nan nan nan nan nan nan nan nan nan nan nan nan nan nan nan nan nan nan nan nan nan
nan 0 0 -0 0 -0 0 0 -0 -0 -0 -0 -0 -0 0 0 0 0 0 -0 -0 -0 -0 -0 -0 -0 -0 -0 -0 -0 -0 -0 -0 -0 -0 -0 -0 -0 -0 0 0 -0 nan
nan -0 -0 0 0 -0 -0 -0 -0 -0 -0 -0 -0 -0 -0 0 0 0 0 -0 -0 -0 0 -0 -0 -0 -0 -0 -0 -0 -0 -0 -0 -0 -0 -0 -1 -1 -1 -0 -0 -0 nan
nan 0 0 -0 -0 -0 -0 -0 -0 -0 -0 -0 -0 -0 -0 -0 0 0 0 0 0 -0 -0 0 0 -0 -0 -0 -0 -0 -0 -0 -0 -0 -0 -0 -0 -1 -1 -1 -0 -0 nan
nan 0 -0 -0 -0 -0 -0 -0 -0 -0 -0 -0 -0 -0 -0 -0 -0 0 0 0 0 0 0 0 0 -0 -0 -0 -0 -0 -0 -0 -0 -0 -0 0 -0 -1 -1 -0 -0 -0 nan
nan 0 -0 -0 -0 -0 -0 -0 -0 -0 -0 -0 -0 -0 -0 -0 -0 0 0 0 0 0 0 0 0 -0 0 -0 -0 -0 -0 -0 -0 -0 -0 0 0 -0 -1 -1 -0 -0 nan
nan 0 0 -0 -0 -0 -0 -0 -0 -0 -0 -0 -0 -0 -1 -0 -0 -0 0 0 0 0 0 0 0 0 0 -0 -0 -0 -0 -0 -0 -0 -0 0 0 -0 -1 -1 -1 -0 nan
nan 0 0 -0 -0 -0 -0 -0 -0 -0 -0 -0 -0 -0 -0 -0 -1 -0 -0 0 0 0 0 0 0 0 0 -0 -0 -0 0 -0 -0 -0 -0 0 0 -0 -1 -0 -1 -0 nan
nan 0 0 0 -0 -0 -0 -0 -0 -0 -0 -0 -0 -0 -0 -0 -0 -1 -0 -0 -0 0 0 0 0 0 0 0 -0 -0 0 0 0 0 0 0 0 0 -0 -0 -0 -0 nan
nan 0 0 -0 -0 -0 -0 -0 -0 -0 -0 -0 -0 -0 0 0 -0 -1 -0 -0 -0 -0 0 0 0 0 0 0 0 0 0 0 0 0 0 0 0 0 0 0 -0 -0 nan
nan 0 0 0 0 -0 -0 -0 0 0 0 -0 0 -0 -0 -0 1 0 -1 0 -0 -1 -0 -0 0 0 0 0 0 0 0 0 0 0 0 1 0 -1 -0 0 -0 -0 nan
nan 0 1 0 0 0 -0 -0 0 -0 -0 -0 0 0 0 0 0 0 -0 -1 -0 0 -0 -1 -0 0 0 0 0 0 0 0 0 0 0 0 0 -0 -0 0 0 -0 nan
nan 0 0 0 0 0 0 0 0 1 0 -0 -0 0 -0 -0 1 1 0 -0 -0 -0 0 -1 -1 0 0 0 0 0 0 0 1 0 0 0 -0 -0 0 0 -0 0 nan
nan 0 0 0 0 -0 -0 0 0 0 0 0 -0 -0 -0 -0 -0 0 1 1 0 -0 0 -0 -1 -1 0 1 1 0 0 0 1 0 0 -0 0 0 0 -0 0 0 nan
nan -0 -0 -0 -0 -0 -0 -0 0 0 0 0 0 -0 -0 -0 -0 0 0 1 2 0 -1 0 0 -1 -0 1 0 0 0 1 0 0 0 -0 -0 0 0 0 0 0 nan
nan -0 -0 -0 -0 -0 -0 -0 -0 0 0 0 0 0 -0 -0 -0 -0 -0 0 1 2 1 -1 0 -0 -1 0 0 0 1 1 0 0 0 -0 0 0 0 0 0 0 nan
nan -0 -0 -0 -0 -0 -0 -0 -1 -1 -1 -1 -0 0 0 -0 -1 -1 -1 -0 -0 0 0 0 2 1 -0 -0 0 1 0 0 0 1 0 -0 0 0 0 0 0 -0 nan
nan -0 -0 -0 -1 -1 -0 -0 -0 -0 -0 -0 -0 -0 0 -1 -1 -1 -1 -1 -1 -0 -0 0 1 1 0 0 1 1 0 1 0 0 0 -0 0 0 0 0 -0 0 nan
nan -0 -0 -0 -1 -1 -1 -0 -0 -0 -0 -0 0 0 1 0 -0 -0 -1 -1 -1 -1 -0 -0 0 1 1 0 1 1 1 1 0 0 0 -0 -0 -0 0 0 0 1 nan
nan -0 -0 -0 -0 -0 -0 -0 -0 -0 -0 -0 -0 0 1 1 1 0 -1 -1 -1 -1 -1 0 0 0 0 0 1 1 0 0 0 -0 -0 -0 -0 -0 0 0 1 1 nan
nan -0 -0 -0 -0 -0 -0 -0 -0 -1 -0 -1 -1 -0 0 0 1 2 1 0 -0 -1 -1 0 1 0 -0 0 1 1 1 0 -0 0 0 -0 -0 0 1 0 0 0 nan
nan -0 -0 -0 -0 -0 -0 0 -0 -0 -1 -1 -2 -2 -1 -1 -0 0 1 2 1 -1 -1 0 1 0 -0 0 1 1 0 -0 0 0 0 0 0 0 0 0 0 0 nan
nan -0 -0 -1 -1 -0 -0 -0 -0 -0 -0 -1 -1 -3 -4 -2 -3 -3 -1 -0 0 0 -1 -1 0 0 0 1 1 0 0 0 0 0 0 0 0 -0 0 0 1 0 nan
nan -1 -1 -1 -1 -1 -0 -0 -0 0 1 1 0 0 -1 -1 -0 -1 -1 -1 -1 -1 -1 -0 0 1 1 1 0 0 0 0 0 0 0 0 0 0 1 1 1 0 nan
nan -0 -1 -1 -1 -1 -0 -0 0 -0 0 1 1 1 0 -1 -1 1 0 -1 -1 -1 -0 1 1 0 0 0 0 0 0 0 0 0 0 0 0 0 1 1 0 0 nan
nan nan nan nan nan nan nan nan nan nan nan nan nan nan nan nan nan nan nan nan nan nan nan nan nan nan nan nan nan nan nan nan nan nan nan nan nan nan nan nan nan nan nan
Wind_Speed
3 3 1 0 1 2 3 4 4 5 6 7 8 8 8 8 8 8 8 9 9 9 8 8 7 8 8 8 9 10 11 13 13 15 15 16 17 17 17 18 18 19 20
4 4 3 1 2 3 4 5 7 7 8 8 9 9 9 9 9 8 9 9 8 8 8 8 8 8 7 8 9 12 14 15 16 16 17 17 18 18 18 17 17 18 19
5 4 5 4 5 5 6 7 8 8 9 9 9 10 10 10 10 10 10 9 10 10 9 9 8 7 7 8 10 12 15 16 17 18 18 18 18 18 18 18 18 18 18
4 3 5 6 7 7 8 9 9 10 10 10 11 11 12 12 11 11 11 11 11 11 11 10 8 7 7 8 10 13 16 19 19 19 18 18 18 18 18 18 18 19 18
5 3 4 6 7 8 9 9 10 10 11 12 12 13 13 13 13 13 13 14 14 13 13 12 10 9 9 10 12 15 17 19 19 19 19 17 16 18 18 17 18 18 18
5 5 5 6 7 8 10 11 11 12 12 13 14 14 14 15 15 15 15 16 16 16 15 14 12 11 11 12 14 16 17 17 19 20 19 17 15 18 19 19 18 16 15
6 6 7 7 8 9 10 11 12 13 14 14 16 14 16 16 16 16 17 17 18 17 17 16 15 14 14 14 16 16 16 17 18 19 19 17 13 18 20 20 18 17 16
6 7 7 8 9 10 10 11 12 14 15 14 13 15 8 11 13 12 13 15 16 18 18 18 18 17 15 16 17 17 17 17 19 20 19 18 13 18 18 17 16 14 11
5 6 7 9 10 11 12 12 13 14 15 17 15 10 6 6 12 15 15 17 18 18 19 21 21 19 18 18 19 18 18 19 20 20 20 19 14 15 16 15 11 10 8
5 7 9 11 11 13 13 14 15 15 17 17 19 18 17 20 11 14 13 15 16 18 22 22 23 23 20 20 20 20 20 20 22 22 21 19 13 15 14 9 8 6 5
7 10 13 17 20 14 14 15 17 19 20 21 20 19 21 21 23 20 23 17 17 19 23 23 25 27 24 24 22 22 21 22 23 23 21 19 14 16 15 15 13 10 9
13 14 18 21 16 16 18 20 21 22 23 25 25 25 24 19 15 17 19 24 23 22 21 28 29 29 32 27 24 23 22 23 24 23 21 19 14 16 16 16 13 10 13
15 17 19 17 17 18 20 22 23 25 25 26 26 28 29 29 28 26 23 25 27 25 23 27 32 32 31 31 27 24 24 23 23 23 21 20 15 14 15 14 14 12 10
15 13 12 12 14 16 18 20 22 24 25 26 28 29 31 31 32 32 33 32 31 29 25 25 25 33 33 33 28 24 24 22 22 22 21 20 17 17 18 15 14 14 10
7 8 10 11 13 15 17 18 20 21 23 25 28 30 31 33 34 34 36 36 36 32 33 29 28 29 33 33 27 25 22 21 21 21 21 20 18 18 17 16 16 14 13
8 11 13 15 16 18 20 21 22 23 25 25 27 28 30 31 33 34 36 38 38 41 44 32 31 32 32 32 31 27 22 20 20 21 21 21 20 19 18 18 16 14 15
10 12 15 17 19 21 23 24 25 26 27 27 28 29 30 31 34 36 37 38 39 39 44 47 43 39 38 36 36 29 22 22 24 23 22 21 20 19 19 19 18 17 17
11 14 16 18 20 21 23 24 25 26 26 27 28 28 31 29 30 32 36 38 39 39 41 46 43 43 45 42 35 31 25 27 26 21 19 18 17 17 19 21 22 21 16
11 14 16 19 22 24 25 26 27 28 29 30 31 31 31 32 33 34 35 40 40 40 42 44 48 42 40 40 35 31 28 27 24 22 21 19 17 17 21 21 28 23 15
15 18 20 22 24 24 25 26 27 29 30 32 33 34 35 34 32 31 32 36 40 43 43 44 45 40 40 37 34 29 31 29 22 23 21 22 20 18 18 19 29 22 17
17 19 21 23 24 24 25 26 27 28 30 33 34 35 36 37 38 38 38 38 38 41 44 42 42 39 40 40 38 33 31 22 23 25 25 23 20 19 17 10 17 20 21
19 20 22 23 23 24 25 25 27 29 30 32 35 35 36 38 39 41 41 39 39 39 43 41 40 37 41 40 33 30 26 24 24 18 18 20 16 16 20 21 20 22 18
20 21 21 22 22 24 24 26 26 29 32 34 36 37 40 40 39 40 37 37 39 37 37 40 44 40 35 35 25 21 24 20 18 17 13 10 10 16 15 20 25 22 17
20 21 21 23 24 23 24 26 26 28 30 31 35 40 39 44 40 35 35 35 38 34 35 33 37 38 33 23 18 22 18 16 16 14 15 10 14 20 20 22 20 18 14
21 22 23 24 25 25 25 28 28 30 32 36 38 39 40 40 39 31 31 33 33 31 25 22 22 14 14 16 14 12 15 16 16 16 14 13 17 22 19 17 16 15 12
23 24 25 26 26 27 25 27 28 29 33 36 40 42 38 34 33 31 28 26 30 24 23 17 11 10 11 11 13 14 17 15 17 18 16 20 19 25 17 18 16 15 13
Wind_Direction
181 212 213 267 270 317 331 327 321 315 301 289 287 286 285 281 280 280 277 283 282 283 285 297 311 317 318 320 322 323 323 324 324 321 318 313 307 302 296 291 286 283 281
202 218 230 255 300 318 321 313 310 307 304 301 298 294 289 285 280 278 277 282 281 285 289 299 307 312 315 320 321 324 327 328 325 321 317 316 312 308 302 295 290 286 283
216 225 244 263 276 298 312 315 315 312 309 304 296 293 291 287 285 283 280 277 285 285 289 293 295 300 309 317 323 323 322 322 321 319 317 315 315 312 308 301 299 294 290
204 236 257 265 274 291 306 308 309 312 310 307 303 299 295 291 287 284 281 278 280 284 286 283 286 293 303 312 315 318 320 319 318 317 315 313 313 315 314 311 303 298 296
228 260 287 284 286 291 296 298 302 305 309 311 308 304 300 295 291 285 281 279 278 277 275 278 276 284 298 310 314 315 315 314 315 317 314 311 313 314 312 311 310 305 296
247 270 288 287 289 291 292 295 300 305 306 309 308 304 300 296 291 286 282 279 275 271 270 272 276 281 293 302 305 308 312 314 316 316 313 310 310 308 306 308 311 313 310
242 259 279 289 292 293 293 296 298 301 305 308 309 309 302 295 289 284 279 275 272 269 266 267 268 270 285 298 303 306 308 312 311 308 307 305 303 305 309 311 314 309 299
246 265 280 288 294 297 296 296 299 302 301 304 307 315 317 305 298 289 285 278 274 269 266 267 265 265 281 294 298 302 305 306 303 300 300 300 294 301 307 308 319 327 320
252 269 283 289 289 289 290 293 295 295 295 298 297 289 303 286 303 292 284 284 283 276 274 273 270 266 277 289 293 295 298 300 298 296 296 296 295 294 299 307 305 330 340
285 291 295 296 294 285 283 284 287 288 289 290 290 286 279 277 287 293 290 291 276 277 281 279 274 266 272 283 286 287 292 294 292 291 292 292 282 283 286 285 300 332 2
295 289 287 289 289 285 282 279 280 282 283 285 284 282 285 279 275 267 284 282 283 281 274 275 277 268 267 277 283 282 286 288 287 286 287 288 286 276 267 260 265 280 286
283 283 289 290 298 289 287 282 280 282 286 286 286 283 281 273 277 271 268 277 278 278 270 276 275 270 269 270 279 277 280 282 280 279 280 280 278 270 260 260 262 270 287
271 276 288 298 302 301 300 299 297 291 287 285 287 287 282 280 279 272 268 273 275 274 274 277 277 273 270 267 276 272 275 277 275 275 276 276 273 257 244 255 266 276 282
278 288 302 311 313 312 309 305 302 301 298 291 287 285 283 279 278 279 279 281 273 272 268 270 273 273 271 265 265 264 272 271 269 270 271 273 265 250 250 261 260 266 264
299 317 324 325 323 320 317 314 312 308 303 299 295 291 287 285 281 278 277 276 276 269 270 266 265 272 269 263 258 262 267 266 263 265 265 264 258 248 247 248 249 261 262
343 341 337 333 330 327 323 319 315 310 305 301 296 293 290 288 287 285 283 279 274 273 269 267 259 260 266 262 260 265 263 263 265 264 260 260 257 250 248 251 250 254 259
340 335 333 332 330 328 324 321 317 313 309 304 299 294 292 291 287 283 283 282 280 276 273 276 271 260 256 256 260 253 260 268 260 260 255 253 251 247 245 245 248 248 267
340 337 333 330 327 324 321 318 315 312 310 307 306 302 297 295 292 292 292 291 288 284 281 282 276 266 260 259 251 246 256 254 251 249 241 242 248 248 249 246 248 243 252
326 328 329 330 330 329 326 324 321 319 315 313 311 307 304 303 298 290 289 291 290 290 286 285 280 266 257 257 238 240 242 240 245 235 233 240 251 255 257 258 248 230 228
336 335 334 332 331 328 323 318 317 316 315 312 310 307 304 301 297 296 297 288 287 287 287 282 278 256 256 251 240 246 239 230 232 231 233 241 249 255 262 242 226 226 230
332 330 328 327 327 326 323 318 314 314 313 311 310 307 302 297 293 292 288 287 285 281 282 277 271 257 247 244 232 236 234 234 235 234 240 247 248 251 237 254 241 237 246
328 327 327 327 327 325 322 319 317 318 318 318 315 309 302 298 294 289 287 283 286 282 282 268 261 253 246 236 238 236 228 235 214 232 253 261 260 229 235 242 231 216 215
325 324 325 325 326 326 328 323 318 316 317 319 321 321 316 311 307 310 303 291 289 280 280 274 273 250 230 225 229 222 211 224 239 250 254 251 238 222 229 219 215 224 225
324 324 323 324 325 328 328 327 319 316 317 318 319 319 313 311 308 302 301 294 293 283 284 273 271 242 229 234 210 215 222 232 238 237 226 228 220 199 199 190 199 206 198
323 323 324 323 324 327 330 330 326 320 316 314 317 319 317 312 314 313 298 290 291 282 275 240 217 231 215 224 212 211 214 211 212 207 212 220 208 188 184 187 192 192 194
322 321 320 322 324 325 331 328 325 321 318 319 323 320 321 318 317 312 292 281 277 249 246 233 211 215 200 200 209 213 224 220 222 218 236 220 211 199 168 184 193 192 194
Height
1573 1573 1573 1573 1573 1573 1573 1573 1572 1571 1571 1570 1570 1569 1569 1568 1567 1566 1565 1564 1563 1562 1561 1560 1559 1558 1557 1555 1554 1552 1551 1550 1548 1547 1545 1543 1542 1540 1539 1537 1536 1535 1534
1572 1573 1573 1573 1573 1573 1572 1572 1571 1570 1570 1569 1568 1567 1567 1566 1565 1564 1563 1562 1561 1560 1559 1559 1558 1557 1555 1554 1552 1550 1549 1548 1546 1544 1542 1540 1538 1537 1536 1534 1532 1531 1530
1571 1572 1572 1572 1571 1571 1571 1571 1570 1569 1568 1567 1566 1565 1564 1563 1563 1562 1561 1561 1559 1558 1558 1557 1556 1555 1553 1552 1551 1549 1547 1546 1544 1542 1540 1538 1535 1533 1532 1530 1529 1527 1526
1570 1570 1570 1570 1570 1570 1570 1569 1569 1568 1567 1566 1565 1564 1562 1562 1561 1560 1560 1559 1558 1557 1555 1555 1554 1553 1552 1551 1549 1548 1546 1544 1542 1540 1538 1536 1533 1531 1529 1527 1525 1524 1522
1569 1569 1569 1569 1569 1568 1568 1567 1567 1566 1565 1564 1563 1561 1560 1559 1558 1558 1557 1556 1555 1555 1554 1552 1552 1551 1550 1549 1547 1545 1544 1541 1540 1538 1536 1534 1532 1529 1527 1524 1522 1520 1518
1568 1568 1568 1567 1567 1567 1566 1566 1565 1565 1564 1562 1561 1560 1558 1556 1555 1554 1554 1553 1552 1552 1551 1550 1549 1548 1547 1546 1545 1543 1541 1538 1537 1535 1534 1532 1530 1528 1525 1523 1520 1517 1515
1565 1566 1566 1565 1565 1565 1564 1564 1563 1563 1562 1560 1559 1557 1555 1553 1552 1551 1550 1550 1549 1548 1548 1547 1547 1546 1544 1543 1541 1539 1537 1535 1533 1532 1530 1528 1527 1526 1523 1521 1517 1515 1513
1563 1564 1564 1564 1563 1563 1562 1562 1561 1560 1560 1559 1559 1556 1554 1553 1549 1548 1547 1546 1546 1545 1545 1544 1543 1542 1541 1540 1537 1536 1534 1532 1530 1529 1527 1525 1524 1523 1520 1518 1515 1512 1511
1561 1562 1562 1562 1561 1560 1560 1559 1558 1558 1557 1556 1556 1557 1555 1552 1548 1545 1544 1544 1543 1542 1541 1540 1540 1539 1538 1536 1534 1531 1530 1528 1527 1525 1523 1522 1520 1521 1518 1515 1512 1510 1509
1560 1560 1559 1559 1558 1557 1557 1556 1555 1555 1554 1553 1552 1552 1552 1550 1549 1545 1541 1540 1539 1538 1537 1536 1535 1534 1533 1531 1529 1527 1525 1523 1522 1521 1520 1518 1516 1517 1516 1513 1510 1508 1507
1558 1558 1558 1556 1554 1553 1553 1552 1551 1550 1550 1549 1549 1548 1546 1545 1544 1543 1538 1538 1534 1534 1532 1531 1530 1528 1527 1526 1524 1522 1520 1518 1517 1515 1515 1515 1515 1513 1512 1510 1508 1507 1505
1556 1556 1555 1553 1551 1550 1549 1548 1548 1546 1546 1545 1544 1544 1543 1542 1541 1538 1535 1532 1531 1529 1528 1525 1524 1523 1521 1519 1518 1516 1515 1513 1511 1511 1510 1509 1509 1509 1509 1507 1506 1505 1503
1553 1553 1552 1550 1549 1547 1546 1545 1544 1542 1542 1540 1539 1538 1536 1535 1534 1533 1530 1527 1524 1523 1520 1516 1516 1515 1514 1513 1512 1511 1510 1507 1506 1506 1506 1506 1505 1504 1504 1504 1503 1501 1500
1550 1549 1548 1547 1546 1545 1543 1541 1540 1538 1537 1536 1534 1533 1531 1529 1527 1526 1524 1522 1517 1515 1514 1510 1509 1507 1506 1504 1504 1503 1501 1500 1500 1500 1500 1500 1501 1501 1501 1499 1500 1499 1496
1547 1546 1545 1544 1543 1541 1540 1538 1536 1534 1532 1530 1528 1526 1524 1522 1520 1518 1517 1516 1513 1507 1503 1504 1501 1498 1498 1497 1496 1496 1495 1493 1493 1493 1494 1494 1495 1494 1495 1495 1494 1495 1496
1544 1544 1543 1542 1540 1539 1537 1534 1531 1530 1527 1525 1522 1519 1517 1515 1512 1510 1508 1506 1504 1500 1492 1495 1494 1488 1490 1490 1489 1488 1488 1488 1487 1486 1488 1490 1490 1491 1492 1491 1491 1491 1491
1542 1541 1540 1538 1536 1534 1532 1529 1527 1524 1521 1519 1516 1513 1510 1508 1504 1501 1499 1496 1493 1491 1485 1479 1482 1482 1480 1480 1481 1481 1480 1482 1479 1478 1480 1483 1484 1485 1485 1486 1487 1488 1489
1539 1538 1537 1535 1533 1530 1527 1524 1521 1518 1515 1513 1510 1507 1504 1501 1499 1496 1492 1488 1484 1483 1479 1472 1472 1468 1469 1472 1471 1471 1471 1473 1474 1472 1473 1477 1479 1479 1481 1482 1482 1483 1484
1536 1535 1533 1530 1528 1525 1522 1518 1515 1512 1509 1506 1503 1500 1496 1493 1490 1488 1485 1481 1477 1473 1470 1467 1461 1459 1458 1461 1462 1462 1462 1464 1467 1467 1467 1472 1475 1474 1477 1477 1476 1477 1479
1532 1530 1528 1526 1523 1521 1517 1513 1509 1506 1502 1499 1496 1493 1489 1486 1482 1479 1475 1472 1470 1465 1462 1457 1454 1451 1449 1451 1455 1456 1457 1456 1460 1462 1462 1466 1467 1468 1470 1470 1469 1470 1475
1529 1527 1525 1522 1519 1516 1513 1509 1504 1500 1496 1492 1488 1484 1480 1476 1473 1469 1467 1462 1459 1456 1452 1448 1445 1444 1441 1437 1442 1445 1449 1452 1455 1457 1458 1458 1461 1463 1465 1464 1466 1468 1471
1524 1522 1520 1518 1515 1512 1508 1504 1499 1494 1491 1485 1480 1476 1471 1466 1462 1458 1455 1451 1450 1447 1445 1439 1436 1434 1432 1430 1434 1437 1442 1447 1451 1446 1455 1456 1456 1458 1459 1462 1463 1465 1467
1521 1518 1516 1513 1510 1507 1504 1500 1495 1489 1483 1478 1472 1467 1460 1455 1451 1447 1441 1437 1435 1435 1433 1431 1428 1424 1423 1422 1426 1432 1437 1441 1444 1447 1450 1452 1454 1455 1455 1459 1460 1462 1465
1517 1514 1512 1509 1505 1503 1499 1494 1488 1483 1478 1473 1469 1464 1456 1448 1443 1438 1433 1428 1424 1421 1421 1420 1418 1419 1417 1418 1422 1428 1433 1438 1441 1443 1448 1449 1451 1451 1453 1456 1458 1460 1462
1513 1509 1506 1504 1500 1497 1494 1488 1482 1476 1471 1466 1463 1457 1452 1441 1435 1430 1426 1420 1416 1413 1412 1413 1413 1413 1414 1418 1422 1426 1430 1433 1436 1441 1444 1447 1450 1449 1453 1455 1457 1459 1461
1508 1505 1501 1498 1494 1490 1487 1483 1479 1472 1466 1459 1455 1450 1444 1437 1429 1423 1418 1412 1411 1408 1408 1410 1413 1415 1417 1419 1423 1425 1429 1430 1434 1437 1440 1444 1445 1448 1452 1455 1456 1458 1460